Location: Ferintosh
(52.7647°N, 112.9692°W)
Time: 13:17:27
(UTC+00:00)

Transit 2A Rocket - Pass Details

Date: 21 May 2024
Orbit: 583 x 910 km, 66.7° (Epoch: 14 June)

Event Time Altitude Azimuth Distance (km) Brightness Sun altitude
Rises 12:33:02 0° 225° (SW) 3,010 7.5 8.1°
Reaches altitude 10° 12:35:16 10° 228° (SW) 2,146 6.8 8.4°
Maximum altitude 12:40:09 72° 313° (NW) 786 5.2 9.1°
Drops below altitude 10° 12:45:35 10° 38° (NE) 2,379 8.7 9.9°
Sets 12:48:10 0° 41° (NE) 3,364 9.5 10.2°
